Weather History for KPSK - March, 2013

Change the Weather History Date:

Monday, March 18, 2013

  Actual Average (KBCB) Record (KBCB)
Temperature  
Mean Temperature 34 °F 42 °F  
Max Temperature 35 °F 54 °F 74 °F (1982)
Min Temperature 32 °F 30 °F 10 °F (1967)
Degree Days  
Heating Degree Days 32 23  
Month to date heating degree days 457  
Since 1 July heating degree days 4505  
Cooling Degree Days 0 0  
Month to date cooling degree days 0  
Year to date cooling degree days 0  
Moisture  
Dew Point 34 °F    
Average Humidity 100    
Maximum Humidity 100    
Minimum Humidity 100    
Precipitation  
Precipitation 0.07 in 0.12 in 1.57 in (2002)
Month to date precipitation 1.99  
Year to date precipitation 7.88  
Snow  
Snow 0.00 in - - ()
Month to date snowfall  
Since 1 July snowfall  
Snow Depth -    
Sea Level Pressure  
Sea Level Pressure 30.04 in    
Wind  
Wind Speed 6 mph (East)    
Max Wind Speed 14 mph    
Max Gust Speed -    
Visibility 4 miles    
Events Snow    
T = Trace of Precipitation, MM = Missing Value Source: NWS Daily Summary

Daily Weather History Graph

Daily Weather History Graph

Search for Another Location

Airport or City:

Trip Planner

Search our weather history database for the weather conditions in past years. The results will help you decide how hot, cold, wet, or windy it might be!

Date:

Astronomy

Mar. 18, 2013 Rise Set
Actual Time 7:28 AM EDT 7:32 PM EDT
Civil Twilight 7:02 AM EDT 7:58 PM EDT
Nautical Twilight 6:32 AM EDT 8:29 PM EDT
Astronomical Twilight 6:02 AM EDT 8:59 PM EDT
Moon 11:34 AM EDT (3/18) 1:23 AM EDT (3/18)
Length of Visible Light 12h 55m
Length of Day
12h 04m
Waxing Crescent, 40% of the Moon is Illuminated
Mar 18
Waxing Crescent
Mar 19
First Quarter
Mar 27
Full
Apr 3
Last Quarter
Apr 10
New

Hourly Weather History & Observations

Time (EDT) Temp. Windchill Dew Point Humidity Pressure Visibility Wind Dir Wind Speed Gust Speed Precip Events Conditions
12:15 AM 35.6 °F 30.7 °F 35.6 °F 100% 30.14 in 10.0 mi ESE 5.8 mph - N/A   Overcast
12:35 AM 35.6 °F 30.7 °F 35.6 °F 100% 30.14 in 10.0 mi ESE 5.8 mph - N/A   Overcast
12:55 AM 35.6 °F 29.9 °F 35.6 °F 100% 30.13 in 5.0 mi ESE 6.9 mph - N/A   Overcast
1:15 AM 35.6 °F 31.7 °F 35.6 °F 100% 30.13 in 4.0 mi ESE 4.6 mph - N/A   Overcast
1:35 AM 33.8 °F 27.0 °F 33.8 °F 100% 30.13 in 3.0 mi East 8.1 mph - N/A   Overcast
1:55 AM 33.8 °F 30.8 °F 33.8 °F 100% 30.13 in 2.5 mi East 3.5 mph - N/A   Overcast
2:15 AM 33.8 °F 29.6 °F 33.8 °F 100% 30.13 in 2.5 mi East 4.6 mph - N/A   Overcast
2:35 AM 33.8 °F 29.6 °F 33.8 °F 100% 30.13 in 2.0 mi East 4.6 mph - N/A   Overcast
2:55 AM 33.8 °F 29.6 °F 33.8 °F 100% 30.13 in 2.5 mi East 4.6 mph - N/A   Overcast
3:15 AM 33.8 °F 28.6 °F 33.8 °F 100% 30.12 in 3.0 mi East 5.8 mph - N/A   Overcast
3:35 AM 33.8 °F 29.6 °F 33.8 °F 100% 30.12 in 2.5 mi East 4.6 mph - N/A   Overcast
3:55 AM 33.8 °F 29.6 °F 33.8 °F 100% 30.12 in 2.5 mi East 4.6 mph - N/A   Overcast
4:15 AM 33.8 °F 28.6 °F 33.8 °F 100% 30.11 in 2.5 mi East 5.8 mph - N/A   Overcast
4:35 AM 33.8 °F - 33.8 °F 100% 30.12 in 2.5 mi Calm Calm - N/A   Overcast
4:55 AM 33.8 °F 27.7 °F 33.8 °F 100% 30.12 in 4.0 mi East 6.9 mph - N/A   Overcast
5:15 AM 33.8 °F 28.6 °F 33.8 °F 100% 30.12 in 5.0 mi East 5.8 mph - N/A   Overcast
5:35 AM 33.8 °F 27.0 °F 33.8 °F 100% 30.12 in 2.0 mi East 8.1 mph - N/A   Overcast
5:55 AM 33.8 °F 28.6 °F 33.8 °F 100% 30.12 in 2.0 mi East 5.8 mph - N/A   Overcast
6:15 AM 33.8 °F 27.7 °F 33.8 °F 100% 30.12 in 2.0 mi East 6.9 mph - N/A   Overcast
6:35 AM 33.8 °F 27.0 °F 33.8 °F 100% 30.12 in 2.0 mi East 8.1 mph - N/A   Overcast
6:55 AM 33.8 °F 28.6 °F 33.8 °F 100% 30.12 in 2.0 mi East 5.8 mph - N/A   Overcast
7:15 AM 33.8 °F 26.4 °F 33.8 °F 100% 30.13 in 3.0 mi ESE 9.2 mph - N/A   Overcast
7:35 AM 33.8 °F 25.8 °F 33.8 °F 100% 30.12 in 4.0 mi East 10.4 mph - N/A   Overcast
7:55 AM 33.8 °F 27.0 °F 33.8 °F 100% 30.12 in 5.0 mi ESE 8.1 mph - N/A   Overcast
8:15 AM 33.8 °F 26.4 °F 33.8 °F 100% 30.12 in 7.0 mi ESE 9.2 mph - N/A   Overcast
8:55 AM 32.0 °F 24.2 °F 32.0 °F 100% 30.12 in 2.0 mi ESE 9.2 mph - N/A   Overcast
9:15 AM 32.0 °F 24.2 °F 32.0 °F 100% 30.12 in 1.8 mi ESE 9.2 mph - N/A   Overcast
9:35 AM 32.0 °F 24.8 °F 32.0 °F 100% 30.11 in 1.5 mi ESE 8.1 mph - N/A   Overcast
9:55 AM 32.0 °F 23.0 °F 32.0 °F 100% 30.10 in 1.5 mi ESE 11.5 mph - N/A   Overcast
10:15 AM 32.0 °F 23.0 °F 32.0 °F 100% 30.09 in 1.5 mi ESE 11.5 mph - N/A   Overcast
10:35 AM 32.0 °F 24.2 °F 32.0 °F 100% 30.11 in 1.8 mi ESE 9.2 mph - N/A   Overcast
10:55 AM 32.0 °F 24.8 °F 32.0 °F 100% 30.11 in 2.0 mi ESE 8.1 mph - N/A   Overcast
11:15 AM 32.0 °F 24.2 °F 32.0 °F 100% 30.10 in 3.0 mi ESE 9.2 mph - N/A   Overcast
11:35 AM 33.8 °F 27.7 °F 33.8 °F 100% 30.09 in 4.0 mi ESE 6.9 mph - N/A   Overcast
11:55 AM 32.0 °F 23.6 °F 32.0 °F 100% 30.08 in 4.0 mi ESE 10.4 mph - N/A   Overcast
12:15 PM 33.8 °F 24.3 °F 33.8 °F 100% 30.06 in 10.0 mi ESE 13.8 mph - N/A   Overcast
12:35 PM 33.8 °F 25.8 °F 33.8 °F 100% 30.06 in 4.0 mi SE 10.4 mph - N/A   Overcast
12:55 PM 33.8 °F 27.0 °F 33.8 °F 100% 30.06 in 2.0 mi ESE 8.1 mph - N/A   Overcast
1:15 PM 33.8 °F 27.0 °F 33.8 °F 100% 30.06 in 2.5 mi East 8.1 mph - N/A   Overcast
1:35 PM 33.8 °F 27.0 °F 33.8 °F 100% 30.04 in 1.8 mi East 8.1 mph - N/A   Overcast
1:55 PM 33.8 °F 27.0 °F 33.8 °F 100% 30.03 in 1.8 mi East 8.1 mph - N/A   Overcast
2:15 PM 33.8 °F 26.4 °F 33.8 °F 100% 30.02 in 1.8 mi East 9.2 mph - N/A   Overcast
2:35 PM 33.8 °F 28.6 °F 33.8 °F 100% 30.01 in 1.5 mi East 5.8 mph - N/A   Overcast
2:55 PM 33.8 °F 27.0 °F 33.8 °F 100% 30.00 in 2.0 mi ESE 8.1 mph - N/A   Overcast
3:15 PM 33.8 °F 30.8 °F 33.8 °F 100% 30.01 in 1.8 mi ESE 3.5 mph - N/A   Overcast
3:35 PM 33.8 °F 28.6 °F 33.8 °F 100% 29.98 in 2.0 mi East 5.8 mph - N/A   Overcast
3:55 PM 33.8 °F 30.8 °F 33.8 °F 100% 29.98 in 5.0 mi East 3.5 mph - 0.01 in   Overcast
4:15 PM 33.8 °F 29.6 °F 33.8 °F 100% 29.99 in 2.0 mi East 4.6 mph - 0.03 in Snow Snow
4:35 PM 33.8 °F 30.8 °F 33.8 °F 100% 29.98 in 2.0 mi East 3.5 mph - 0.04 in Snow Light Snow
4:55 PM 33.8 °F 27.0 °F 33.8 °F 100% 29.97 in 4.0 mi ENE 8.1 mph - N/A   Overcast
5:15 PM 33.8 °F 27.7 °F 33.8 °F 100% 29.97 in 2.5 mi ENE 6.9 mph - 0.02 in Snow Light Snow
5:35 PM 33.8 °F - 33.8 °F 100% 29.98 in 1.8 mi Calm Calm - 0.02 in Snow Light Snow
5:55 PM 33.8 °F - 33.8 °F 100% 29.97 in 3.0 mi Calm Calm - 0.01 in   Overcast
6:15 PM 33.8 °F - 33.8 °F 100% 29.98 in 10.0 mi Calm Calm - N/A   Overcast
6:35 PM 33.8 °F - 33.8 °F 100% 29.97 in 10.0 mi Calm Calm - N/A Snow Light Snow
6:55 PM 33.8 °F - 33.8 °F 100% 29.95 in 10.0 mi Calm Calm - N/A   Overcast
7:15 PM 33.8 °F - 33.8 °F 100% 29.95 in 10.0 mi Calm Calm - N/A   Overcast
7:35 PM 33.8 °F - 33.8 °F 100% 29.94 in 10.0 mi Calm Calm - N/A   Overcast
8:15 PM 33.8 °F 27.0 °F 33.8 °F 100% 29.88 in 7.0 mi ESE 8.1 mph - N/A   Overcast
8:35 PM 33.8 °F - 33.8 °F 100% 29.90 in 5.0 mi Calm Calm - N/A   Overcast
8:55 PM 33.8 °F - 33.8 °F 100% 29.89 in 7.0 mi Calm Calm - N/A   Overcast
9:15 PM 33.8 °F - 33.8 °F 100% 29.89 in 5.0 mi Calm Calm - N/A   Overcast
9:35 PM 33.8 °F - 33.8 °F 100% 29.88 in 7.0 mi Calm Calm - N/A   Overcast
9:55 PM 33.8 °F - 33.8 °F 100% 29.89 in 7.0 mi Calm Calm - N/A   Overcast
10:15 PM 33.8 °F - 33.8 °F 100% 29.88 in 7.0 mi Calm Calm - N/A   Overcast
10:35 PM 33.8 °F - 33.8 °F 100% 29.87 in 7.0 mi Calm Calm - N/A   Overcast
10:55 PM 33.8 °F - 33.8 °F 100% 29.88 in 5.0 mi Calm Calm - N/A   Overcast
11:15 PM 33.8 °F - 33.8 °F 100% 29.87 in 3.0 mi Calm Calm - N/A   Overcast
11:55 PM 33.8 °F - 33.8 °F 100% 29.88 in 5.0 mi Calm Calm - N/A   Overcast